DW8338 Weather Reports


time (UTC)temp
C
wind
direction
speed
KPH
gust
KPH
rain 1hr
cm
rain 24hr
cm
rain mn
cm
humidity
%
barometer
mb
20260503235304 16 169 4.8 11.3 0.00 0.00 0.00 80 1013.7
20260503234804 16 174 4.8 8.0 0.00 0.00 0.00 80 1013.7
20260503234304 16 190 8.0 9.7 0.00 0.00 0.00 80 1013.7
20260503233304 16 202 4.8 9.7 0.00 0.00 0.00 80 1013.9
20260503232804 16 179 6.4 8.0 0.00 0.00 0.00 79 1013.9
20260503232305 16 191 8.0 11.3 0.00 0.00 0.00 79 1013.9
20260503231804 16 183 4.8 9.7 0.00 0.00 0.00 79 1014.0
20260503231304 16 179 6.4 9.7 0.00 0.00 0.00 79 1014.0
20260503230804 16 154 4.8 9.7 0.00 0.00 0.00 79 1013.9
20260503230304 16 195 4.8 9.7 0.00 0.00 0.00 78 1013.9
20260503225804 16 155 4.8 9.7 0.00 0.00 0.00 78 1014.0
20260503225304 16 166 8.0 9.7 0.00 0.00 0.00 78 1014.1
20260503224804 16 163 4.8 9.7 0.00 0.00 0.00 78 1014.1
20260503224304 16 179 9.7 12.9 0.00 0.00 0.00 78 1014.1
20260503223804 16 182 3.2 8.0 0.00 0.00 0.00 77 1014.1
20260503223304 16 166 4.8 9.7 0.00 0.00 0.00 78 1014.1
20260503222804 16 175 6.4 12.9 0.00 0.00 0.00 77 1014.1
20260503222304 16 163 3.2 8.0 0.00 0.00 0.00 77 1014.1
20260503221304 16 159 3.2 9.7 0.00 0.00 0.00 77 1014.0
20260503220804 16 177 8.0 11.3 0.00 0.00 0.00 76 1014.0
20260503215804 16 181 4.8 11.3 0.00 0.00 0.00 76 1014.0
20260503215304 16 179 6.4 12.9 0.00 0.00 0.00 76 1014.0
20260503214804 16 184 6.4 12.9 0.00 0.00 0.00 75 1014.0
20260503214304 17 180 3.2 8.0 0.00 0.00 0.00 75 1013.9
20260503212804 17 173 6.4 9.7 0.00 0.00 0.00 74 1013.9
20260503212305 17 179 4.8 11.3 0.00 0.00 0.00 74 1013.9
20260503211804 17 180 4.8 9.7 0.00 0.00 0.00 74 1013.9
20260503211304 17 206 4.8 9.7 0.00 0.00 0.00 73 1013.9
20260503210804 17 231 4.8 11.3 0.00 0.00 0.00 74 1013.9
20260503205304 17 234 4.8 11.3 0.00 0.00 0.00 74 1013.7
20260503204803 17 244 8.0 16.1 0.00 0.00 0.00 73 1013.6
20260503204304 17 261 4.8 12.9 0.00 0.00 0.00 73 1013.6
20260503203804 17 232 4.8 9.7 0.00 0.00 0.00 74 1013.6
20260503203303 17 248 6.4 14.5 0.00 0.00 0.00 73 1013.5
20260503202804 17 219 4.8 14.5 0.00 0.00 0.00 73 1013.5
20260503201804 17 226 8.0 14.5 0.00 0.00 0.00 72 1013.3
20260503200804 17 234 8.0 19.3 0.00 0.00 0.00 72 1013.1
20260503200304 17 226 9.7 19.3 0.00 0.00 0.00 71 1013.0
20260503195304 17 247 8.0 19.3 0.00 0.00 0.00 70 1012.9
20260503194304 18 238 11.3 20.9 0.00 0.00 0.00 69 1012.8
20260503193303 18 251 9.7 20.9 0.00 0.00 0.00 68 1012.6
20260503192804 18 226 11.3 20.9 0.00 0.00 0.00 67 1012.6
20260503192305 18 234 9.7 19.3 0.00 0.00 0.00 67 1012.7
20260503190804 18 244 11.3 19.3 0.00 0.00 0.00 66 1012.6
20260503190304 18 248 11.3 19.3 0.00 0.00 0.00 65 1012.4
20260503185804 19 242 14.5 22.5 0.00 0.00 0.00 64 1012.4
20260503185305 19 246 8.0 12.9 0.00 0.00 0.00 63 1012.4
20260503184803 19 232 11.3 22.5 0.00 0.00 0.00 63 1012.4
20260503183804 20 242 14.5 22.5 0.00 0.00 0.00 61 1012.3
20260503183304 20 220 11.3 20.9 0.00 0.00 0.00 59 1012.3
20260503182804 20 232 11.3 25.7 0.00 0.00 0.00 59 1012.3
20260503182305 20 220 14.5 24.1 0.00 0.00 0.00 57 1012.3
20260503181804 20 240 14.5 24.1 0.00 0.00 0.00 58 1012.2
20260503180304 21 222 17.7 29.0 0.00 0.00 0.00 59 1012.2
20260503175803 21 227 16.1 24.1 0.00 0.00 0.00 58 1012.1
20260503175304 21 211 16.1 24.1 0.00 0.00 0.00 59 1012.0
20260503174804 21 240 16.1 25.7 0.00 0.00 0.00 59 1012.0
20260503174304 21 205 11.3 24.1 0.00 0.00 0.00 58 1012.0
20260503173804 21 236 14.5 27.4 0.00 0.00 0.00 57 1012.0
20260503173304 21 228 19.3 29.0 0.00 0.00 0.00 57 1012.1
20260503172803 21 208 14.5 22.5 0.00 0.00 0.00 57 1012.0
20260503172305 21 222 16.1 29.0 0.00 0.00 0.00 57 1012.1
20260503171804 22 225 14.5 32.2 0.00 0.00 0.00 57 1012.0
20260503171304 22 222 11.3 20.9 0.00 0.00 0.00 55 1012.0
20260503170804 22 238 16.1 29.0 0.00 0.00 0.00 54 1012.0
20260503150804 23 267 16.1 25.7 0.00 0.00 0.00 48 1012.2
20260503150304 23 233 19.3 32.2 0.00 0.00 0.00 48 1012.1
20260503131304 23 237 14.5 20.9 0.00 0.00 0.00 54 1013.0
20260503130803 22 232 14.5 27.4 0.00 0.00 0.00 54 1013.0
20260503130304 23 249 9.7 19.3 0.00 0.00 0.00 54 1013.0
20260503110804 22 220 8.0 16.1 0.00 0.00 0.00 58 1014.1
20260503110304 22 228 9.7 19.3 0.00 0.00 0.00 59 1014.1
20260503090304 19 267 8.0 14.5 0.00 0.00 0.00 76 1014.3
20260503081304 18 165 4.8 9.7 0.00 0.00 0.00 82 1014.3
20260503080804 17 211 4.8 8.0 0.00 0.00 0.00 82 1014.3
20260503080304 17 248 4.8 8.0 0.00 0.00 0.00 82 1014.3
20260503072804 17 301 1.6 4.8 0.00 0.00 0.00 87 1014.1
20260503072305 17 264 3.2 4.8 0.00 0.00 0.00 87 1014.1
20260503071804 17 305 1.6 4.8 0.00 0.00 0.00 87 1014.1
20260503071304 17 257 3.2 4.8 0.00 0.00 0.00 87 1014.1
20260503070804 17 228 3.2 4.8 0.00 0.00 0.00 87 1014.1
20260503070304 17 265 4.8 4.8 0.00 0.00 0.00 87 1014.1
20260503060304 17 247 3.2 4.8 0.00 0.00 0.00 87 1013.9
20260503054804 17 191 1.6 4.8 0.00 0.00 0.00 87 1013.8
20260503054303 17 208 3.2 4.8 0.00 0.00 0.00 87 1013.7
20260503053304 17 233 1.6 4.8 0.00 0.00 0.00 87 1013.5
20260503052804 17 168 1.6 4.8 0.00 0.00 0.00 87 1013.5
20260503052305 17 190 3.2 4.8 0.00 0.00 0.00 87 1013.6
20260503051803 17 156 3.2 8.0 0.00 0.00 0.00 87 1013.6
20260503051303 17 225 3.2 8.0 0.00 0.00 0.00 87 1013.6
20260503050804 17 232 4.8 8.0 0.00 0.00 0.00 88 1013.6
20260503050304 17 187 1.6 3.2 0.00 0.00 0.00 88 1013.6
20260503045804 16 259 3.2 4.8 0.00 0.00 0.00 88 1013.6
20260503045305 16 244 3.2 4.8 0.00 0.00 0.00 88 1013.6
20260503044804 16 244 3.2 4.8 0.00 0.00 0.00 87 1013.5
20260503044304 16 231 4.8 8.0 0.00 0.00 0.00 87 1013.5
20260503043803 16 220 9.7 11.3 0.00 0.00 0.00 87 1013.5
20260503043304 17 228 4.8 8.0 0.00 0.00 0.00 87 1013.5
20260503042804 17 205 4.8 4.8 0.00 0.00 0.00 87 1013.5
20260503042305 17 221 3.2 4.8 0.00 0.00 0.00 87 1013.6
20260503041804 17 198 4.8 9.7 0.00 0.00 0.00 87 1013.6
20260503041303 17 222 4.8 9.7 0.00 0.00 0.00 86 1013.6
20260503040804 17 189 4.8 8.0 0.00 0.00 0.00 86 1013.6
20260503040304 17 208 3.2 4.8 0.00 0.00 0.00 86 1013.8
20260503035804 17 198 4.8 8.0 0.00 0.00 0.00 86 1013.7
20260503035305 17 191 3.2 4.8 0.00 0.00 0.00 86 1013.7
20260503034804 17 203 1.6 4.8 0.00 0.00 0.00 86 1013.8
20260503032803 17 191 1.6 4.8 0.00 0.00 0.00 85 1013.8
20260503032304 17 157 0.0 3.2 0.00 0.00 0.00 85 1013.8
20260503031804 17 133 1.6 4.8 0.00 0.00 0.00 85 1013.9
20260503031303 17 200 1.6 4.8 0.00 0.00 0.00 85 1013.9
20260503030804 17 163 3.2 4.8 0.00 0.00 0.00 85 1014.0
20260503030304 17 196 1.6 4.8 0.00 0.00 0.00 85 1014.2
20260503025804 17 228 3.2 4.8 0.00 0.00 0.00 85 1014.2
20260503024804 17 183 3.2 4.8 0.00 0.00 0.00 85 1014.0
20260503024303 17 214 1.6 4.8 0.00 0.00 0.00 84 1014.0
20260503023804 17 193 3.2 8.0 0.00 0.00 0.00 84 1014.0
20260503023304 17 192 3.2 4.8 0.00 0.00 0.00 84 1014.0
20260503022804 17 178 3.2 4.8 0.00 0.00 0.00 84 1014.0
20260503022305 17 206 3.2 4.8 0.00 0.00 0.00 84 1013.9
20260503021803 17 158 1.6 4.8 0.00 0.00 0.00 84 1013.9
20260503021303 17 182 0.0 4.8 0.00 0.00 0.00 84 1014.1
20260503020804 17 165 0.0 4.8 0.00 0.00 0.00 84 1014.1
20260503020304 17 185 1.6 4.8 0.00 0.00 0.00 84 1014.2
20260503015804 17 208 1.6 4.8 0.00 0.00 0.00 84 1014.2
20260503015305 17 167 1.6 4.8 0.00 0.00 0.00 83 1014.2
20260503014804 17 182 3.2 4.8 0.00 0.00 0.00 83 1014.4
20260503014304 17 192 3.2 4.8 0.00 0.00 0.00 83 1014.4
20260503013805 17 184 1.6 4.8 0.00 0.00 0.00 83 1014.4
20260503013304 17 203 3.2 4.8 0.00 0.00 0.00 82 1014.5
20260503012804 17 177 3.2 8.0 0.00 0.00 0.00 82 1014.5
20260503011804 17 196 3.2 8.0 0.00 0.00 0.00 81 1014.6
20260503010804 17 166 6.4 8.0 0.00 0.00 0.00 81 1014.9
20260503010304 17 171 4.8 9.7 0.00 0.00 0.00 81 1014.9
20260503005804 17 176 4.8 8.0 0.00 0.00 0.00 81 1014.9
20260503005304 17 146 4.8 9.7 0.00 0.00 0.00 80 1015.0
20260503004804 17 189 1.6 4.8 0.00 0.00 0.00 80 1015.0
20260503004304 17 203 4.8 9.7 0.00 0.00 0.00 80 1015.1
20260503003804 17 183 8.0 9.7 0.00 0.00 0.00 80 1015.1
20260503002803 17 157 4.8 9.7 0.00 0.00 0.00 80 1015.1
20260503002305 17 167 4.8 9.7 0.00 0.00 0.00 80 1015.1
20260503001804 17 159 4.8 8.0 0.00 0.00 0.00 80 1015.3
20260503001304 17 176 4.8 8.0 0.00 0.00 0.00 79 1015.3